Flag for Australia

Past Weather in Toowoomba, Queensland, Australia — Yesterday and Last 2 Weeks

Now
41 °F

Quite cool.


Feels Like: 36 °F
Forecast: 71 / 43 °F
Wind: 8 mph from Southeast

Location: Oakey Aerodrome

Current Time: Aug 5, 2020 at 3:08:02 am

Latest Report: Aug 5, 2020 at 1:00 am


Visibility: N/A

Pressure: 29.97 "Hg (27.85 "Hg at 597m altitude)

Humidity: 89%

Dew Point: 38 °F

Location of ToowoombaLocation

Past Weather in Toowoomba — Graph

°F

Toowoomba Temperature Yesterday

Maximum temperature yesterday: 70 °F (at 4:00 pm)
Minimum temperature yesterday: 43 °F (at 10:00 pm)
Average temperature yesterday: 55 °F

High & Low Weather Summary for the Past Weeks

 TemperatureHumidityPressure
High70 °F (Aug 2, 3:00 pm)98% (Jul 24, 6:00 am)30.33 "Hg (Jul 24, 6:00 am)
Low35 °F (Jul 31, 6:00 am)31% (Aug 2, 4:00 pm)29.86 "Hg (Jul 27, 3:00 pm)
Average54 °F76%30.12 "Hg
* Reported Jul 21 1:00 am — Aug 5 1:00 am, Toowoomba. Weather by CustomWeather, © 2020

Note: Actual official high and low records may vary slightly from our data, if they occured in-between our weather recording intervals... More about our weather records

Toowoomba Weather History for the Previous 24 Hours

Scroll right to see more
 ConditionsComfort  
Time TempWeatherWind HumidityBarometerVisibility
1:00 am
Wed, Aug 5
41 °FQuite cool.8 mph89%29.97 "HgN/A
12:00 am41 °FQuite cool.7 mph85%29.97 "HgN/A
10:00 pm
Tue, Aug 4
43 °FQuite cool.6 mph79%29.98 "HgN/A
9:00 pm45 °FCool.6 mph68%29.98 "HgN/A
7:00 pm54 °FCool.5 mph61%29.96 "HgN/A
6:00 pm61 °FPassing clouds.6 mph45%29.96 "HgN/A
4:00 pm70 °FMild.12 mph33%29.93 "HgN/A
3:00 pm68 °FScattered clouds.12 mph34%29.94 "HgN/A
1:00 pm67 °FMild.8 mph35%29.97 "HgN/A
12:00 pm66 °FScattered clouds.10 mph33%30.00 "HgN/A
10:00 am61 °FRefreshingly cool.7 mph59%30.06 "HgN/A
9:00 am58 °FOvercast.2 mph71%30.06 "HgN/A
7:00 am50 °FCool.3 mph87%30.06 "HgN/A
6:00 am51 °FOvercast.5 mph84%30.04 "HgN/A
4:00 am49 °FCool.5 mph84%30.04 "HgN/A
3:00 am49 °FCool.6 mph86%30.05 "HgN/A
Weather by CustomWeather, © 2020

See weather overview